Terminal Aerodrome Forecast
Issued by NWS Knoxville/Tri Cities, TN

Home | Current Version | Previous Version | Text Only | Print | Product List | Glossary On
Versions: 1 2 3 4 5 6 7 8 9 10 11 12 13 14 15 16 17 18 19 20 21 22 23 24 25 26 27 28 29 30 31 32 33
000
FTUS44 KMRX 302017 AAA
TAFTYS
TAF AMD
KTYS 302017Z 3020/3118 17015G25KT P6SM SCT050 BKN200
     FM310100 19012G24KT P6SM SCT050 SCT090 BKN150
     FM310500 21014G20KT P6SM VCTS SCT045CB BKN080
     FM310700 VRB12G22KT 4SM -TSRA BR SCT025 BKN035CB
     FM311000 23010KT 6SM BR BKN030
     FM311300 24012KT P6SM BKN040=

USA.gov is the U.S. government's official web portal to all federal, state and local government web resources and services.